Location: Sabalos
(43.2860°N, 0.1414°E)
Time: 08:43:18
(UTC+00:00)

Lacrosse 5 rocket - Pass Details

Date: 05 July 2020
Orbit: 465 x 631 km, 57.0° (Epoch: 14 August)

Event Time Altitude Azimuth Distance (km) Brightness Sun altitude
Rises 21:13:02 0° 291° (WNW) 2,806 6.1 -13.2°
Reaches altitude 10° 21:16:25 10° 318° (NW) 1,867 5.5 -13.6°
Maximum altitude 21:18:33 14° 348° (NNW) 1,624 4.7 -13.9°
Drops below altitude 10° 21:20:39 10° 19° (NNE) 1,814 4.4 -14.1°
Sets 21:23:51 0° 47° (NE) 2,664 4.9 -14.5°
